User: anonymous   Login
Location: Aufkirchen
(47.9603°N, 11.3653°E)
Time: 18:49:18
(UTC+01:00)
Language:

Explorer 7 - Orbit

View from above orbital plane
View from above orbital plane
View from above satellite
View from above satellite

Ground track
Ground track

The orbit data is extracted from the following two-line orbital elements,

1 00022U 59009A   20338.58871009  .00000925  00000-0  91212-4 0  9996
2 00022  50.2855  28.3911 0139286 185.0375 174.9179 14.95328007495671
Epoch (UTC): 03 December 2020 14:07:44
Eccentricity: 0.0139286
inclination: 50.2855°
perigee height: 484 km
apogee height: 678 km
right ascension of ascending node: 28.3911°
argument of perigee: 185.0375°
revolutions per day: 14.95328007
mean anomaly at epoch: 174.9179°
orbit number at epoch: 49567

The dashed part of the orbit path shows where the satellite is in the earth's shadow,  

DLR